Погода в Кочки

Погода в Кочки : погода сейчас, прогноз погоды и архив. Всё, что Вы хотите узнать о погоде в Кочки!

Хотите узнать прогноз погоды в Кочки? Тогда Вам сюда: Погода в Кочки

Поиск расширенной информации на нашем сайте:

Другие новости

Новости СМИ2

Главная страница сайта

Новости сайта

03.07.2017

Напоминаем, что на нашем специализированном сайте Метеоцентр.Азия вы можете получить высокодетализированные автоматические прогнозы погоды по пунктам России, СНГ и мира в авиационном формате (включающие направление и скорость ветра, видимость, явления погоды, количество и форму облачности, нижнюю и верхнюю границу облачности).


Погода в Кочки - сегодня

Время (UTC), дата Ветер
(°,м/с) 
Видим.   Явления Облачность Т
(°С)
Тd
(°С)
f(%) Тe
(°С)
Pmin
(гПа)
dP
(гПа)
Po
(мм)
O2
(г/м3)
Тmin Tmax R s Состояние
почвы
00 18.06.18 310 (СЗ) 20000 м  {гроза, ливн. осадки}  8/6 600 м кучево-дожд., средняя 
[Cb cap|Ac As]
+13.8 +12.5 92 +19  1002.8  -1  738  281  +13.2      влажная 
03 18.06.18 340 (С) 20000 м  {ливн. осадки}  10/3 1000 м средняя, верхняя 
[Cu hum|Ac trans|Ci fib]
+20.3 +14.7 70 +29  1001.6  -0.7  737  274           
06 18.06.18 330 (СЗ) 20000 м  {ливн. осадки}  10/3 1000 м средняя, верхняя 
[Sc|Ac trans|Ci fib]
+22.8 +15.6 64 +33  1000  -1.4  736  271           
09 18.06.18 300 (СЗ) 20000 м  {гроза, ливн. осадки}  10/4 600 м кучево-дожд., средняя, верхняя 
[Cb cap|Ac trans|Cc]
+21.4 +14.6 65 +30  1001.1  0.9  737  272           
12 18.06.18 070 (В) 20000 м  слаб. ливневой дождь{гроза}  10/6 600 м кучево-дожд., средняя, верхняя 
[Cb cap|Ac As|Cc]
+21.6 +14.8 65 +30  998.4  -2.6  735  271    +23.9  0.0     
15 18.06.18 290 (З) 20000 м  {гроза, ливн. осадки}  9/4 600 м кучево-дожд., средняя, верхняя 
[Cb cap|Ac As|Ci sp]
+18.3 +15.3 83 +29  999.4  0.8  736  275           
18 18.06.18 270 (З) 20000 м  зарница{гроза, ливн. осадки}  8/3 600 м кучево-дожд., средняя, верхняя 
[Cb calv|Ac trans|Ci sp]
+15.6 +14 90 +23  999.6  -0.1  736  277           
21 18.06.18 220 (ЮЗ) 4000 м  дымка  3/3 1000 м 
[Sc]
+12 +11 94 +16  999.7  -0.1  736  282           
00 19.06.18 тихо ()   1000 м  туман  6/3 1000 м верхняя 
[Sc|Ci sp]
+12.2 +11.5 95 +16  999.5  -0.3  735  281  +10.5    0.0    влажная 
03 19.06.18 090 (В) 20000 м    9/3 1000 м средняя, верхняя 
[Sc|Ac trans|Ci fib]
+17.5 +14.6 83 +27  998.3  -0.7  735  275           
12 19.06.18 260 (З) 5-10{11}  20000 м  в посл. час гроза{ливн. осадки}  9/6 600 м кучево-дожд., средняя, верхняя 
[Cb cap|Ac As|Ci sp]
+16.3 +14 86 +24  994.9  2.5  732  276    +20.7     
15 19.06.18 220 (ЮЗ) 3{10}  20000 м    3/3 600 м кучево-дожд., верхняя 
[Cb cap|Ci fib]
+14.9 +12.2 84 +20  999.8  4.7  736  279           
18 19.06.18 210 (ЮЗ) 20000 м    1/1 1000 м 
[Sc]
+11.8 +10.5 92 +14  1002  737  283           
21 19.06.18 210 (ЮЗ) 20000 м    ясно 
+11.7 +10.4 92 +14  1002.4  0.4  738  283           
00 20.06.18 200 (Ю) 20000 м    3/3 1000 м верхняя 
[Sc|Ci fib]
+14 +10.2 78 +16  1003.1  0.8  738  281  +10.9        влажная 
03 20.06.18 200 (Ю) 20000 м    4/3 1000 м средняя 
[Cu hum|Ac trans]
+19.7 +11.3 58 +23  1002.9  0.2  738  275           
12 20.06.18 260 (З) 3{13}  20000 м  слаб. ливневой дождь  9/8 600 м кучево-дожд., верхняя 
[Cb cap|Ci sp]
+18.7 +12.1 65 +23  1002.5  0.8  738  276    +23.8  0.1     
15 20.06.18 200 (Ю) 20000 м  {ливн. осадки}  8/8 600 м кучево-дожд. 
[Cb cap]
+17 +11.2 69 +21  1002.9  0.3  738  278           
18 20.06.18 220 (ЮЗ) 20000 м  {ливн. осадки}  8/5 600 м кучево-дожд., средняя 
[Cb cap|Ac trans]
+14.1 +9.2 72 +15  1003.5  0.4  738  281           
21 20.06.18 210 (ЮЗ) 20000 м    9/6 600 м кучево-дожд., верхняя 
[Cb cap|Ci sp]
+13.2 +9.6 79 +15  1004  0.4  739  282           
00 21.06.18 210 (ЮЗ) 20000 м  в посл. час ливневой дождь  8/5 600 м кучево-дожд., средняя, верхняя 
[Cb cap|Ac trans|Ci sp]
+13.8 +11.9 88 +18  1005.1  1.1  740  281  +12.5      влажная 
03 21.06.18 210 (ЮЗ) 20000 м    8/4 1000 м верхняя 
[Sc|Ci sp]
+18 +11.7 67 +22  1005.9  1.1  740  278           
09 21.06.18 210 (ЮЗ) 5{10}  20000 м    4/4 1000 м 
[Cu hum]
+23.3 +10.6 45 +26  1005.2  -0.3  740  273           
12 21.06.18 200 (Ю) 4{11}  20000 м    3/3 1000 м 
[Cu hum]
+24.3 +9.3 39 +25  1004.5  -0.7  740  272    +24.5       
15 21.06.18 150 (ЮВ) 20000 м    9/0 средняя, верхняя 
[Ac As|Ci sp]
+20 +10.5 54 +22  1004.6  -0.2  740  276           
Время (UTC), дата Ветер
(°,м/с) 
Видим.   Явления Облачность Т
(°С)
Тd
(°С)
f(%) Тe
(°С)
Pmin
(гПа)
dP
(гПа)
Po
(мм)
O2
(г/м3)
Тmin Tmax R s Состояние
почвы

Для получения пояснительной информации подведите курсор к названию столбца.

ПОГОДА в Кочки - архив

Всё, что Вы хотите узнать о погоде в Кочки - удобно и подробно!

Выберите нужную дату (начиная с 1 января 2015* года) и нажмите кнопку "Найти".
Будут отображены архивные сводки погоды по пункту Кочки, начиная с указанной даты.


Отображать данные в формате CSV (для использования в таблицах Excel)


Внимание! Наш архив погоды предназначен исключительно для личного некоммерческого использования в познавательных целях. Если Вам необходимы официальные справки о состоянии погоды (для производственных, юридических, коммерческих и т.п. целей), обращайтесь в органы Росгидромета.

*Примечание: данная дата относится к архиву по метеостанциям СССР (Россия, СНГ, Балтия).
Архив по метеостанциям Зарубежной Европы и Азии (кроме Китая) хранится 10 дней, по другим регионам земного шара (Китай, Африка, Америка, Австралия, Океания) - 1 день.

Кочки - район местоположения метеостанции


Название, широта, долгота, высота метеостанции:
Кочки 54.3°ш. 80.5°д. 164 м над ур. моря [Российская Федерация]

Дополнительная информация

В oтличие oт бoльшинства пoгoдных сайтoв мы публикуем пoдрoбную метеoинфoрмацию в детальнoм прoфессиoнальнoм фoрмате.

Характеристики температуры и влажнoсти вoздуха измеряются на высoте 2 м в тени вдали oт зданий и деревьев.
Скoрoсть ветра измеряется на высoте 10 м (на урoвне рoста челoвека скoрoсть ветра ниже в 1.5-2 раза). Если метеoстанция нахoдится в гoрoде или в лесу, тo скoрoсть ветра занижена на 2-4 м/с пo сравнению с oткрытым местoм. Скoрoсть ветра над акватoриями крупных рек и oзёр, а также на вершинах хoлмoв на 2-5 м/с выше, чем в oбычных услoвиях.
Атмoсфернoе давление в разных тoчках местнoсти мoжет значительнo oтличаться oт давления на метеoстанции, в зависимoсти oт услoвий рельефа (при пoдъёме на 10 м давление пoнижается примернo на 1 мм рт.ст.).